Temp
-7 -6 -6 -6 -6 -6 -6 -5 -5 -5 -5 -5 -5 -5 -5 -5 -5 -5 -5 -5 -5 -5 -5 -5 -5 -5 -5 -6 -6 -6 -8 -10 -9 -8 -8 -9 -8 -8 -9 -8 -8 -7 -7 -8 -8
-7 -6 -6 -6 -6 -6 -6 -5 -5 -5 -5 -5 -5 -5 -5 -5 -5 -5 -5 -5 -5 -5 -5 -5 -5 -5 -5 -6 -6 -6 -8 -10 -8 -8 -8 -8 -8 -8 -8 -8 -8 -8 -8 -8 -7
-7 -6 -6 -6 -6 -6 -6 -6 -6 -5 -5 -5 -5 -5 -5 -5 -5 -5 -5 -5 -5 -5 -5 -5 -5 -5 -6 -6 -7 -7 -8 -9 -9 -9 -8 -8 -8 -8 -8 -8 -8 -8 -8 -8 -8
-7 -7 -7 -7 -6 -6 -6 -6 -6 -6 -5 -5 -5 -5 -5 -5 -5 -5 -5 -5 -5 -6 -6 -5 -5 -6 -6 -6 -7 -7 -7 -9 -10 -8 -8 -8 -8 -8 -8 -8 -8 -8 -8 -8 -8
-7 -7 -7 -7 -7 -7 -6 -6 -6 -6 -6 -5 -5 -5 -5 -5 -5 -5 -5 -5 -5 -6 -6 -5 -5 -6 -6 -7 -7 -7 -8 -9 -6 -8 -8 -8 -8 -8 -8 -8 -8 -8 -8 -8 -9
-7 -7 -7 -7 -7 -7 -7 -6 -6 -6 -6 -6 -6 -5 -5 -5 -5 -5 -5 -5 -5 -5 -6 -6 -6 -6 -6 -7 -7 -7 -8 -6 -8 -8 -8 -9 -9 -9 -9 -9 -9 -9 -9 -9 -9
-7 -7 -7 -7 -7 -7 -7 -7 -7 -6 -6 -6 -6 -6 -6 -6 -6 -5 -6 -5 -5 -6 -6 -7 -6 -6 -6 -7 -7 -8 -8 -8 -8 -8 -8 -8 -9 -9 -9 -9 -9 -10 -10 -10 -9
-7 -7 -7 -7 -7 -7 -7 -7 -7 -7 -7 -6 -6 -6 -6 -6 -6 -6 -6 -6 -6 -6 -7 -7 -7 -6 -6 -7 -8 -8 -8 -9 -8 -8 -9 -9 -8 -9 -9 -9 -10 -10 -10 -10 -10
-7 -7 -7 -7 -7 -6 -6 -6 -6 -7 -7 -7 -7 -7 -6 -6 -6 -6 -6 -6 -6 -7 -7 -7 -7 -7 -7 -7 -7 -8 -8 -9 -9 -9 -9 -9 -9 -9 -9 -10 -10 -10 -10 -10 -10
-7 -7 -7 -7 -7 -7 -7 -7 -7 -7 -7 -7 -7 -7 -7 -7 -7 -7 -7 -7 -6 -7 -7 -8 -8 -8 -8 -7 -8 -8 -8 -8 -8 -9 -9 -9 -9 -9 -9 -10 -10 -10 -10 -11 -10
-8 -8 -7 -7 -7 -7 -7 -7 -7 -7 -7 -7 -7 -7 -7 -7 -7 -7 -7 -7 -7 -7 -8 -8 -8 -8 -8 -8 -8 -7 -8 -8 -8 -9 -9 -9 -9 -10 -10 -10 -10 -10 -10 -10 -10
-8 -8 -8 -8 -8 -8 -8 -7 -7 -7 -7 -7 -7 -8 -8 -8 -8 -8 -8 -8 -8 -8 -8 -8 -9 -9 -8 -8 -8 -8 -8 -8 -8 -8 -9 -9 -10 -10 -10 -10 -11 -11 -11 -11 -11
-9 -9 -8 -8 -8 -8 -8 -8 -8 -8 -8 -8 -8 -8 -8 -8 -9 -9 -9 -9 -9 -8 -9 -9 -9 -8 -9 -9 -9 -9 -9 -9 -9 -9 -9 -9 -9 -10 -10 -10 -11 -11 -11 -11 -11
-9 -9 -9 -9 -9 -9 -9 -9 -8 -9 -9 -9 -9 -9 -9 -9 -9 -9 -9 -9 -9 -9 -9 -9 -9 -9 -9 -9 -9 -9 -9 -9 -9 -9 -9 -9 -10 -9 -10 -10 -11 -11 -11 -11 -11
-9 -9 -9 -9 -9 -9 -9 -9 -9 -9 -9 -9 -9 -9 -9 -9 -9 -10 -10 -10 -10 -10 -10 -10 -10 -10 -10 -10 -10 -10 -10 -10 -10 -11 -10 -10 -11 -9 -10 -11 -11 -11 -11 -11 -11
-9 -9 -9 -9 -9 -10 -10 -10 -10 -10 -10 -10 -10 -10 -10 -10 -10 -10 -10 -10 -10 -10 -11 -10 -10 -10 -11 -10 -10 -10 -11 -11 -11 -11 -11 -11 -11 -11 -10 -11 -11 -11 -11 -11 -11
-10 -10 -10 -10 -10 -10 -10 -11 -11 -11 -11 -10 -10 -10 -10 -10 -10 -10 -11 -11 -11 -11 -11 -11 -11 -11 -11 -11 -11 -11 -11 -11 -12 -12 -12 -12 -11 -11 -10 -11 -11 -11 -11 -11 -11
-11 -11 -11 -11 -11 -11 -11 -11 -11 -11 -11 -11 -11 -11 -11 -11 -11 -11 -11 -11 -11 -12 -12 -12 -11 -12 -11 -12 -11 -12 -12 -12 -12 -12 -12 -12 -12 -11 -11 -12 -12 -12 -12 -11 -12
-11 -11 -11 -11 -11 -12 -12 -12 -12 -12 -12 -12 -12 -12 -12 -12 -12 -12 -12 -13 -12 -12 -12 -12 -12 -12 -12 -12 -13 -13 -12 -12 -12 -12 -12 -12 -13 -12 -12 -12 -12 -12 -12 -12 -12
-11 -11 -12 -12 -12 -12 -13 -13 -13 -13 -12 -12 -12 -12 -12 -13 -13 -13 -13 -13 -13 -13 -13 -13 -13 -12 -12 -12 -13 -13 -13 -13 -13 -13 -12 -12 -12 -12 -13 -12 -13 -13 -13 -13 -13
-12 -12 -12 -12 -12 -13 -13 -13 -13 -13 -13 -13 -13 -13 -13 -13 -13 -14 -14 -13 -13 -13 -14 -14 -14 -14 -13 -13 -13 -13 -13 -14 -13 -13 -13 -12 -13 -13 -13 -13 -13 -13 -13 -13 -13
-12 -13 -13 -13 -13 -13 -13 -13 -14 -13 -13 -13 -13 -13 -13 -14 -14 -14 -14 -13 -14 -14 -14 -14 -14 -14 -14 -13 -13 -13 -13 -13 -14 -14 -14 -14 -13 -13 -14 -14 -14 -14 -13 -13 -13
-13 -13 -13 -14 -14 -14 -14 -14 -14 -14 -14 -14 -14 -14 -14 -14 -14 -14 -14 -14 -14 -14 -14 -14 -14 -14 -14 -14 -14 -14 -14 -14 -14 -14 -14 -15 -14 -14 -14 -14 -14 -14 -14 -14 -14
-13 -13 -14 -14 -14 -14 -14 -14 -14 -14 -14 -14 -14 -14 -14 -14 -14 -14 -14 -14 -15 -15 -15 -15 -14 -14 -15 -15 -15 -14 -14 -14 -14 -15 -15 -15 -14 -14 -14 -14 -14 -14 -14 -14 -14
-14 -14 -14 -14 -14 -14 -14 -14 -15 -15 -15 -15 -15 -14 -15 -15 -15 -15 -15 -14 -15 -15 -15 -15 -14 -14 -14 -15 -15 -15 -15 -15 -15 -15 -15 -16 -15 -15 -15 -15 -15 -15 -15 -15 -14
-14 -14 -14 -14 -14 -14 -14 -14 -14 -15 -15 -15 -15 -15 -15 -15 -15 -15 -15 -15 -15 -15 -15 -15 -15 -15 -15 -15 -15 -15 -15 -15 -15 -15 -15 -16 -15 -15 -15 -15 -15 -15 -15 -15 -15
-14 -14 -14 -14 -14 -14 -14 -14 -14 -15 -15 -15 -15 -15 -15 -15 -15 -15 -15 -16 -16 -16 -16 -16 -16 -16 -15 -15 -15 -16 -15 -16 -16 -16 -16 -16 -15 -16 -16 -16 -16 -16 -16 -16 -16
Height
5856 5858 5861 5863 5865 5868 5870 5871 5873 5874 5875 5875 5876 5876 5877 5878 5880 5881 5883 5884 5884 5886 5888 5889 5891 5893 5895 5897 5899 5901 5904 5908 5909 5913 5915 5906 5905 5908 5908 5905 5909 5910 5910 5908 5906
5853 5856 5858 5860 5862 5864 5866 5868 5870 5871 5872 5873 5874 5874 5875 5876 5877 5878 5880 5881 5882 5884 5885 5887 5889 5891 5893 5895 5896 5898 5901 5904 5906 5909 5905 5905 5908 5910 5908 5908 5908 5908 5909 5907 5907
5851 5853 5856 5857 5859 5861 5863 5865 5866 5868 5870 5871 5871 5872 5873 5873 5875 5876 5877 5879 5880 5881 5882 5884 5887 5888 5890 5892 5893 5896 5898 5899 5903 5901 5899 5904 5905 5906 5907 5908 5908 5908 5908 5908 5908
5849 5851 5853 5854 5856 5858 5859 5861 5863 5865 5867 5868 5869 5870 5870 5871 5874 5873 5875 5876 5877 5878 5880 5881 5883 5886 5888 5890 5891 5893 5893 5896 5897 5894 5897 5901 5902 5903 5906 5907 5906 5907 5906 5906 5907
5847 5849 5850 5852 5853 5855 5856 5858 5860 5862 5863 5865 5866 5867 5868 5869 5869 5870 5872 5873 5874 5875 5877 5878 5880 5883 5885 5887 5889 5890 5891 5888 5883 5892 5895 5896 5900 5901 5903 5904 5905 5906 5906 5905 5905
5845 5846 5848 5849 5850 5852 5853 5855 5857 5858 5860 5861 5862 5863 5864 5866 5866 5867 5868 5870 5871 5873 5874 5875 5877 5879 5881 5883 5885 5886 5882 5882 5884 5886 5891 5893 5895 5897 5899 5901 5902 5902 5902 5903 5903
5843 5844 5845 5847 5847 5849 5850 5852 5853 5854 5856 5857 5858 5859 5860 5862 5862 5863 5865 5866 5868 5870 5871 5872 5874 5876 5877 5878 5880 5880 5884 5882 5881 5885 5885 5890 5891 5891 5895 5897 5899 5900 5900 5900 5900
5840 5842 5843 5844 5845 5846 5847 5848 5849 5850 5851 5852 5853 5854 5856 5857 5858 5860 5861 5863 5865 5866 5867 5868 5869 5871 5873 5874 5875 5877 5879 5879 5878 5880 5882 5883 5884 5887 5890 5892 5894 5896 5897 5898 5898
5838 5839 5840 5841 5842 5843 5844 5845 5845 5846 5847 5848 5849 5850 5851 5853 5854 5855 5857 5859 5861 5862 5863 5864 5865 5867 5868 5870 5871 5872 5875 5876 5875 5874 5877 5876 5880 5883 5885 5887 5889 5890 5892 5894 5896
5835 5835 5836 5837 5838 5839 5840 5840 5840 5841 5842 5842 5844 5846 5846 5848 5848 5850 5852 5854 5856 5857 5859 5859 5861 5862 5864 5866 5867 5868 5867 5867 5868 5869 5870 5872 5874 5877 5880 5882 5885 5887 5887 5889 5891
5832 5832 5833 5834 5835 5836 5835 5835 5836 5837 5837 5838 5839 5839 5840 5842 5843 5844 5845 5848 5850 5852 5854 5854 5855 5857 5859 5860 5859 5861 5862 5862 5865 5867 5869 5868 5870 5871 5874 5876 5878 5880 5883 5885 5886
5827 5828 5830 5830 5831 5831 5830 5830 5830 5832 5833 5832 5833 5833 5834 5836 5837 5838 5840 5843 5844 5846 5847 5849 5849 5851 5853 5855 5857 5857 5857 5858 5861 5863 5864 5864 5865 5866 5867 5868 5871 5874 5876 5877 5879
5822 5823 5824 5825 5826 5826 5826 5826 5826 5827 5828 5828 5828 5828 5829 5831 5831 5832 5835 5836 5838 5840 5841 5842 5843 5845 5847 5849 5851 5852 5855 5855 5856 5858 5858 5859 5859 5859 5860 5862 5864 5866 5869 5870 5872
5817 5818 5819 5820 5823 5820 5821 5821 5823 5823 5823 5824 5824 5824 5824 5825 5826 5827 5828 5831 5832 5834 5836 5836 5836 5840 5842 5844 5846 5846 5849 5848 5851 5853 5852 5853 5852 5852 5854 5856 5858 5860 5861 5862 5863
5813 5813 5813 5814 5815 5815 5816 5817 5818 5818 5819 5819 5819 5820 5820 5821 5822 5822 5824 5825 5826 5828 5832 5830 5831 5833 5836 5837 5838 5842 5841 5843 5844 5845 5844 5846 5847 5842 5847 5849 5851 5853 5854 5855 5855
5808 5808 5808 5809 5809 5809 5810 5812 5813 5815 5812 5814 5814 5814 5815 5816 5816 5817 5819 5820 5821 5822 5824 5823 5825 5827 5830 5830 5832 5833 5835 5837 5838 5838 5837 5837 5843 5832 5839 5843 5845 5846 5847 5847 5848
5803 5803 5803 5803 5804 5804 5804 5807 5809 5807 5808 5808 5809 5810 5810 5811 5811 5812 5813 5814 5816 5818 5819 5818 5819 5820 5822 5823 5825 5827 5829 5831 5833 5830 5833 5830 5834 5825 5832 5838 5838 5838 5839 5839 5839
5798 5797 5797 5797 5796 5797 5798 5801 5801 5801 5801 5802 5804 5804 5805 5805 5807 5807 5808 5809 5810 5812 5813 5815 5814 5815 5816 5817 5820 5821 5825 5831 5829 5831 5832 5825 5823 5819 5828 5829 5830 5830 5829 5829 5829
5793 5792 5792 5791 5791 5792 5793 5794 5793 5794 5795 5797 5798 5798 5799 5801 5802 5802 5803 5804 5804 5806 5808 5808 5808 5809 5810 5811 5813 5815 5815 5821 5819 5822 5824 5816 5816 5814 5818 5819 5820 5820 5819 5818 5818
5788 5787 5787 5787 5785 5786 5787 5787 5788 5788 5789 5790 5790 5792 5794 5795 5797 5797 5797 5798 5800 5800 5801 5801 5803 5802 5804 5805 5806 5806 5809 5812 5813 5814 5816 5815 5808 5803 5811 5810 5810 5809 5809 5808 5807
5783 5782 5781 5781 5780 5780 5781 5781 5781 5782 5782 5784 5784 5785 5785 5786 5789 5790 5791 5791 5793 5794 5794 5794 5795 5794 5796 5797 5798 5800 5801 5802 5804 5804 5806 5810 5800 5798 5799 5800 5799 5799 5798 5797 5796
5778 5777 5776 5775 5776 5774 5774 5775 5776 5776 5776 5777 5777 5778 5779 5779 5780 5780 5781 5782 5785 5786 5785 5786 5786 5788 5786 5789 5789 5791 5791 5792 5793 5799 5797 5795 5793 5790 5789 5789 5789 5788 5786 5785 5784
5774 5773 5772 5771 5770 5769 5769 5769 5769 5769 5769 5769 5769 5770 5770 5771 5772 5772 5772 5774 5774 5775 5775 5777 5776 5777 5777 5780 5780 5780 5782 5784 5784 5786 5786 5784 5783 5780 5779 5778 5778 5777 5775 5774 5773
5771 5770 5769 5767 5766 5765 5764 5764 5762 5762 5761 5761 5761 5762 5762 5762 5761 5761 5763 5763 5764 5765 5766 5766 5766 5767 5770 5770 5769 5770 5772 5773 5773 5774 5778 5773 5769 5770 5769 5767 5766 5765 5763 5762 5761
5769 5767 5766 5764 5762 5761 5759 5758 5756 5755 5754 5753 5752 5752 5752 5752 5752 5751 5750 5751 5752 5753 5754 5754 5754 5755 5755 5756 5758 5758 5760 5762 5762 5762 5764 5760 5759 5760 5758 5756 5755 5753 5752 5751 5749
5768 5766 5763 5761 5759 5757 5755 5753 5750 5748 5747 5746 5744 5743 5742 5741 5741 5740 5740 5739 5739 5741 5741 5742 5741 5742 5743 5744 5744 5745 5747 5748 5749 5750 5751 5749 5749 5747 5746 5745 5744 5742 5741 5739 5737
5765 5762 5760 5757 5754 5751 5749 5745 5742 5740 5738 5735 5734 5732 5731 5730 5729 5728 5727 5727 5727 5727 5728 5729 5730 5730 5728 5731 5731 5732 5733 5734 5736 5737 5737 5737 5737 5735 5735 5734 5732 5730 5729 5727 5725
Wind_Speed
21 21 22 22 24 24 23 21 20 16 14 12 11 11 12 13 14 14 13 15 17 14 14 15 13 11 9 9 12 15 19 23 20 18 15 24 24 22 21 21 15 14 11 10 9
21 22 23 23 25 25 24 22 21 19 16 14 12 11 12 13 13 13 15 14 15 13 14 14 13 12 11 10 12 16 21 27 22 22 25 25 19 20 19 19 18 14 9 11 13
20 23 24 25 25 25 24 23 23 21 19 17 14 12 12 13 13 13 13 14 13 12 14 14 12 12 12 11 14 16 22 28 26 29 30 26 25 25 18 19 16 14 10 15 20
18 20 22 22 23 23 23 23 24 24 22 20 17 15 14 13 13 12 13 13 13 13 14 14 14 13 14 12 13 16 24 31 32 31 28 28 27 25 22 21 19 20 16 14 15
18 18 19 19 20 21 22 22 24 25 23 22 20 18 17 16 15 14 14 14 15 15 14 15 16 14 14 13 14 18 26 39 33 29 29 30 28 27 26 25 23 19 19 15 15
17 17 17 18 19 19 20 21 21 24 24 23 22 21 20 19 18 17 16 16 17 18 16 15 15 15 15 15 17 21 34 32 35 33 30 31 32 32 28 27 24 23 21 14 15
16 17 17 17 18 18 19 20 20 21 22 23 23 22 22 20 21 21 19 18 19 19 19 15 16 17 18 19 19 22 25 35 34 35 35 30 32 33 31 29 24 23 19 15 16
18 20 21 21 20 19 20 20 20 22 22 22 23 22 22 23 22 21 20 21 21 19 19 17 17 19 21 21 21 21 26 43 37 36 36 36 34 32 31 28 26 25 19 19 16
16 18 18 19 23 23 22 22 23 24 24 25 25 24 23 24 23 23 22 21 22 21 20 20 19 21 21 23 24 25 27 41 48 46 41 41 35 34 31 30 28 25 16 17 18
20 21 20 20 20 22 23 24 26 27 26 26 27 27 27 26 25 26 25 23 22 23 22 20 21 23 21 21 25 27 33 35 43 46 49 45 42 39 36 34 30 26 21 22 23
22 22 21 20 18 20 22 22 22 23 25 26 27 28 27 28 29 28 26 25 24 25 24 23 25 24 23 26 32 30 32 34 34 50 49 50 48 46 44 41 38 34 31 30 30
25 25 25 24 23 23 22 23 24 23 23 24 25 25 26 26 27 27 27 26 26 25 24 25 27 28 27 26 26 29 31 31 32 36 46 50 51 51 49 47 44 41 37 35 33
26 26 26 26 25 26 26 24 23 23 23 24 24 23 23 24 24 24 24 25 25 26 24 26 30 28 28 27 27 28 27 28 29 31 38 41 49 53 52 51 48 43 40 39 38
23 26 26 27 26 27 27 26 24 22 22 22 23 23 24 23 24 23 24 24 25 24 25 27 29 27 28 28 28 29 26 30 29 30 33 35 40 47 51 52 49 47 46 44 41
16 18 20 23 25 27 27 24 22 22 23 25 23 22 23 24 23 23 23 24 25 26 23 28 28 26 26 27 29 27 29 27 28 31 34 35 36 40 37 39 39 41 42 41 40
17 17 18 19 22 25 26 23 23 22 24 22 22 23 23 24 24 23 22 23 26 25 24 28 28 27 27 27 27 28 29 29 30 35 37 39 37 47 41 37 38 39 38 39 40
17 20 20 20 22 23 24 22 22 22 23 24 22 21 21 22 24 23 23 24 24 23 24 27 27 27 27 29 28 28 28 29 32 38 35 40 42 51 43 39 40 41 41 42 43
17 17 17 19 23 24 24 22 23 25 25 23 21 21 20 21 20 21 23 23 23 22 26 24 27 27 27 30 30 30 26 24 22 26 26 37 45 50 44 44 43 44 47 49 47
17 18 17 19 21 22 21 21 25 26 26 24 22 23 23 20 19 20 20 20 22 21 20 22 26 26 28 28 30 30 34 31 37 30 28 36 41 42 41 42 42 42 42 43 42
18 18 19 19 21 21 20 21 22 25 25 26 27 26 25 24 23 23 24 26 25 25 25 25 26 27 27 29 32 38 36 35 36 36 35 37 45 49 41 43 43 44 45 45 45
18 18 19 19 20 21 20 22 22 23 24 25 27 28 29 30 27 27 28 30 28 28 28 28 28 29 28 29 31 34 39 42 41 38 35 35 43 43 42 43 46 48 48 48 48
16 15 15 16 18 19 22 22 23 24 26 26 26 28 30 31 31 32 33 33 31 31 32 31 32 28 32 30 31 33 37 38 42 35 42 46 44 45 45 47 50 52 52 52 49
13 13 13 13 15 17 19 22 24 25 26 27 29 30 31 33 34 34 35 34 35 34 35 33 37 34 36 35 34 35 34 36 38 41 43 41 40 45 49 51 51 51 51 51 50
11 11 11 12 14 17 19 20 22 24 27 29 30 31 33 35 37 39 40 40 40 39 39 40 40 40 35 34 35 36 35 36 37 38 34 42 48 47 47 48 48 48 49 48 48
10 10 11 12 14 16 19 19 21 22 24 27 30 33 34 36 38 40 42 43 44 44 45 45 45 44 43 42 41 41 39 39 40 41 41 42 47 45 47 48 47 47 47 47 48
12 12 12 13 14 16 18 20 22 24 26 27 30 32 34 35 36 39 41 44 45 45 46 46 47 46 46 45 45 43 42 41 41 41 40 41 43 44 44 44 44 45 46 47 47
18 19 20 20 22 23 24 26 27 28 30 32 33 35 37 38 41 43 44 44 45 45 44 45 46 46 48 46 47 47 46 45 43 42 42 43 43 44 43 43 44 44 44 45 46
Wind_Direction
221 223 226 226 232 238 243 244 242 246 252 258 255 240 234 235 235 236 238 233 236 237 241 244 243 245 241 225 211 207 198 189 207 192 201 211 209 202 191 197 211 219 227 226 220
224 224 228 232 233 240 243 242 239 240 246 255 253 248 239 237 238 236 234 235 238 234 238 244 243 249 240 225 213 210 198 193 200 194 207 210 205 208 216 223 223 227 249 251 255
229 230 232 233 238 242 243 240 239 239 241 245 250 250 243 239 240 236 235 237 235 235 240 245 244 246 242 225 216 210 198 203 202 204 212 216 217 214 218 229 238 230 282 277 275
233 235 237 240 243 243 243 241 238 238 239 242 246 248 246 242 238 237 240 244 243 242 245 249 248 241 241 228 216 206 207 201 210 212 211 217 216 215 228 230 245 263 281 281 267
234 237 242 243 244 244 243 244 240 240 241 243 244 247 247 244 243 241 243 248 248 246 241 247 251 248 246 232 220 210 201 205 233 217 211 213 214 223 236 232 255 259 278 288 292
237 238 241 240 242 242 243 244 244 244 245 245 246 247 247 247 247 247 247 250 253 251 243 246 252 250 240 233 217 206 208 226 227 224 221 219 225 226 232 240 255 265 285 301 296
241 245 244 244 243 244 243 243 243 244 245 248 249 250 250 249 247 249 251 252 251 253 251 243 241 238 235 231 220 218 219 224 233 227 230 229 233 235 236 244 249 259 271 287 290
247 249 250 248 247 250 248 246 246 246 246 246 248 249 251 252 254 255 255 256 257 256 254 245 243 239 234 229 225 217 216 216 233 235 235 233 238 239 246 247 252 256 265 259 280
251 256 257 254 247 248 253 251 249 248 247 248 249 251 253 255 257 258 258 259 260 258 255 249 244 243 236 230 230 221 216 216 222 230 235 243 240 240 245 251 254 260 262 263 264
253 255 255 257 255 250 251 250 248 249 250 250 251 251 251 253 255 257 258 257 257 259 252 248 245 242 236 233 233 233 225 227 227 230 233 242 249 248 249 249 252 255 258 260 270
256 255 258 262 263 258 253 250 251 251 251 252 253 253 253 255 256 257 256 255 252 249 246 243 242 239 232 228 227 236 235 234 231 227 234 240 246 252 256 258 261 261 261 269 275
255 255 258 261 263 261 258 256 254 255 256 255 253 252 252 251 251 251 253 253 250 247 246 241 239 239 240 238 236 238 242 244 242 236 236 240 243 246 252 256 258 262 265 270 272
258 258 259 259 260 260 260 260 260 260 257 254 253 252 251 249 248 249 248 246 246 246 243 242 240 243 243 240 240 242 245 250 250 247 244 246 244 245 248 252 255 256 259 262 269
263 261 261 261 259 258 257 258 260 260 260 256 254 252 250 249 247 247 246 246 246 243 239 242 245 240 242 243 242 245 246 247 251 253 252 247 251 247 250 251 252 254 258 263 264
272 270 266 263 260 258 259 257 257 254 255 253 252 251 250 247 248 245 245 246 247 245 240 241 243 241 240 242 241 242 243 248 243 244 250 247 249 255 252 253 255 254 254 256 260
274 271 268 265 261 259 259 259 256 253 251 253 252 251 249 248 247 246 243 243 245 246 240 247 243 244 241 243 241 240 241 246 245 245 248 253 245 259 251 251 251 253 256 258 260
276 271 268 264 260 258 257 254 252 250 253 251 251 252 250 250 248 247 245 244 244 243 246 245 245 242 242 243 242 241 240 245 242 245 251 249 250 251 263 259 261 263 265 267 269
284 282 278 268 261 257 253 249 247 248 247 249 250 248 250 252 253 252 248 249 247 241 242 245 251 247 245 243 241 243 240 230 254 250 253 258 256 256 261 264 265 267 269 273 277
290 287 281 274 270 264 259 253 246 246 245 245 245 246 247 250 247 248 248 241 243 245 238 246 248 251 245 245 246 247 239 238 229 231 228 257 259 265 261 264 267 270 272 273 275
294 290 283 277 272 268 262 259 254 249 247 242 239 242 243 243 243 245 245 248 248 248 247 248 250 251 248 244 241 240 242 240 242 244 248 261 270 268 267 266 266 267 270 273 275
293 287 279 271 269 266 263 260 257 254 251 248 244 241 240 244 240 241 239 244 241 243 246 248 249 257 251 247 240 240 241 244 241 235 243 247 265 270 266 268 266 267 272 275 277
302 296 286 271 266 263 261 260 258 255 254 252 250 247 247 246 242 242 244 245 244 246 246 248 252 250 254 256 252 247 241 245 242 249 254 249 250 257 264 265 268 271 272 273 273
298 297 292 281 271 264 264 263 260 259 257 255 252 249 248 250 253 251 250 251 253 254 253 253 256 263 260 259 257 255 254 251 249 246 243 251 254 259 260 265 268 269 272 274 275
304 294 299 293 283 278 278 276 271 266 263 261 259 256 253 251 250 253 252 254 257 260 260 262 260 260 257 252 256 260 255 254 252 251 251 254 259 263 266 267 269 271 273 275 277
334 322 311 301 293 290 286 282 278 274 269 265 264 261 259 257 254 254 256 255 255 256 257 258 260 262 262 264 263 264 262 257 254 254 254 253 263 263 265 267 269 271 272 275 277
333 325 316 309 301 295 293 290 285 281 276 272 269 267 267 266 264 262 260 260 260 259 259 258 259 260 260 261 262 263 262 260 259 259 259 260 262 266 267 268 269 272 274 276 278
326 317 309 302 297 294 292 289 286 282 279 276 274 270 267 264 263 263 263 264 263 262 261 259 259 259 259 259 260 261 261 263 265 264 264 263 266 266 268 269 271 272 274 277 278